SCOUT A DEB, 2140

Orbit data source: Space-Track

SCOUT A DEB, 2140 is space debris in LEO originally from a launch on Fri, 28 Jan 1966 UTC launched from the Air Force Western Test Range (AFWTR). Debris objects in space refer to the collection of defunct objects orbiting the Earth. Examples of debris include non-operational satellites, rocket bodies, and fragments generated from explosions, collisions, or faulty payload assembly.

Loading next visibility...
SCOUT A DEB details
Identifier
2140, 1966-005C
Orbit
LEO
Last TLE update17 hours ago
Origin
Flag of USUSN BuWeps (US)
ManufacturerUnknown
MissionSpacecraft
Bus & MotorUnknown
MassUnknown
Launch date (UTC)
1966-01-28 (59 years ago)
Launch vehicleUnknown
Launch site
Air Force Western Test Range (AFWTR)
Object type
Payload
Rocket body
Debris
Shape & HBRUnknown
Radar Cross SectionSmall (<0.1 m²)

Expand to show TLE details & history

TLE from 17 hours ago
0 SCOUT A DEB
1 02140U 66005C   24355.86393159  .00000360  00000-0  42259-3 0  9991
2 02140  89.9421  53.2797 0315338 314.1955  43.3673 13.48072864885242
Epoch: 2024-12-20T20:44Z
Definitive object data (Epoch: 2024-12-20T20:44:03.689Z)
Latitude-0.00006°
Longitude12.341°
Altitude914.945 km
Speed7.477 km/s
True Right ascension03h 33m 07s
True Declination0° 00' 00"
Sunlit
Object was in full shadow at TLE epoch
Visualization TLE readout
Latitude41.15863°
Longitude-167.71343°
Altitude1,318.831 km
Speed7.088 km/s
Apparent Right ascension19h 16m 11s
Apparent Declination12° 55' 38"
Sunlit
Object is in daylight
Visualization observer readout
Local Sidereal Time12:30:04
Azimuth72.748° E
Elevation-0.335°
Doppler factor1
Orbital elements
Apogee altitude1,311.476 km
Perigee altitude841.335 km
Semi-major axis7,454.543 km
Eccentricity0.0315338
Inclination89.9421°
RAAN53.2797°
Arg. of periapsis314.1955°
True anomaly45.92086°
Mean anomaly43.3673°
Eccentric anomaly44.63674°
Mean motion3.37219 °/min
BSTAR0.00042259
Orbital period106.76 mins
Loading maneuver chart data...
Loading historical data...
Loading historical data...
Loading historical data...
Loading historical data...
Loading historical data...
Loading historical data...
Loading historical data...

SCOUT A DEB Visibility forecast

Observer location: undefined°, undefined

Span
Click to sort rows by Start time (UTC) header in descending order
Start Az.
Max El. time (UTC)
Max El. Az.
Max El.
End time (UTC)
End Az.
12 mins2024-12-21 15:09:06.178Z26.038° NE2024-12-21 15:15:06.178Z80.694° E26.056°2024-12-21 15:21:06.178Z135.783° SSE
13 mins2024-12-21 16:56:06.178Z350.246° N2024-12-21 17:02:06.178Z276.745° WNW40.079°2024-12-21 17:09:06.178Z203.749° SW
8 mins2024-12-22 03:10:06.178Z111.519° ESE2024-12-22 03:13:06.178Z76.697° E22.391°2024-12-22 03:18:06.178Z25.648° NE
11 mins2024-12-22 04:55:06.178Z202.484° SSW2024-12-22 04:59:06.178Z261.05° W38.567°2024-12-22 05:06:06.178Z348.805° N
|